Location: Sihaung
(22.8641°N, 94.0549°E)
Time: 12:50:55
(UTC+00:00)

Cosmos 1933 Rocket - Pass Details

Date: 03 March 2021
Orbit: 607 x 630 km, 82.5° (Epoch: 16 April)

Event Time Altitude Azimuth Distance (km) Brightness Sun altitude
Rises 12:21:03 0° 172° (S) 2,849 6.9 -8.4°
Reaches altitude 10° 12:23:19 10° 166° (SSE) 1,950 6.0 -8.9°
Maximum altitude 12:27:27 47° 93° (E) 810 3.7 -9.9°
Drops below altitude 10° 12:31:37 10° 19° (NNE) 1,966 5.9 -10.8°
Sets 12:33:54 0° 14° (NNE) 2,876 6.8 -11.3°
